Flag for Canada

Past Weather in Vancouver, British Columbia, Canada — Yesterday and Last 2 Weeks

Now
68 °F

Passing clouds.


Feels Like: 68 °F
Forecast: 67 / 54 °F
Wind: 6 mph from Southeast

Location: Vancouver International Airport
Current Time: Sep 20, 2020 at 5:31:28 pm
Latest Report: Sep 20, 2020 at 5:00 pm
Visibility: 25 mi
Pressure30.02 "Hg
Humidity: 60%
Dew Point: 54 °F
Location of VancouverLocation

Past Weather in Vancouver — Graph

°F

Vancouver Temperature Yesterday

Maximum temperature yesterday: 64 °F (at 2:00 pm)
Minimum temperature yesterday: 57 °F (at 4:00 am)
Average temperature yesterday: 59 °F

High & Low Weather Summary for the Past Weeks

 TemperatureHumidityPressure
High77 °F (Sep 10, 3:00 pm)100% (Sep 7, 12:00 am)30.34 "Hg (Sep 7, 12:00 am)
Low52 °F (Sep 13, 1:00 am)23% (Sep 8, 12:00 am)29.87 "Hg (Sep 18, 6:00 pm)
Average62 °F83%30.03 "Hg
* Reported Sep 5 4:00 pm — Sep 20 4:00 pm, Vancouver. Weather by CustomWeather, © 2020

Note: Actual official high and low records may vary slightly from our data, if they occured in-between our weather recording intervals... More about our weather records

Vancouver Weather History for the Previous 24 Hours

Scroll right to see more
 ConditionsComfort  
Time TempWeatherWind HumidityBarometerVisibility
4:00 pm
Sun, Sep 20
70 °FPartly sunny.7 mph60%30.03 "Hg25 mi
3:00 pm68 °FBroken clouds.9 mph64%30.05 "Hg25 mi
2:00 pm68 °FPartly sunny.12 mph64%30.06 "Hg25 mi
1:00 pm68 °FPartly sunny.10 mph69%30.08 "Hg25 mi
12:00 pm66 °FPartly sunny.12 mph68%30.09 "Hg25 mi
11:00 am61 °FPartly sunny.9 mph83%30.09 "Hg20 mi
10:41 am61 °FBroken clouds.9 mph88%30.09 "Hg20 mi
10:00 am61 °FPartly sunny.12 mph88%30.09 "Hg20 mi
9:10 am59 °FPartly sunny.13 mph88%30.08 "Hg20 mi
8:00 am57 °FPartly sunny.8 mph94%30.07 "Hg20 mi
7:00 am57 °FPartly sunny.8 mph94%30.08 "Hg20 mi
6:00 am55 °FPartly cloudy.7 mph94%30.07 "Hg15 mi
5:00 am55 °FPassing clouds.10 mph94%30.06 "Hg15 mi
4:00 am57 °FPassing clouds.9 mph88%30.07 "Hg15 mi
3:00 am57 °FPassing clouds.7 mph88%30.07 "Hg15 mi
2:00 am57 °FPassing clouds.12 mph94%30.06 "Hg15 mi
1:00 am57 °FPassing clouds.9 mph94%30.06 "Hg15 mi
12:00 am57 °FPassing clouds.7 mph94%30.06 "Hg15 mi
11:00 pm
Sat, Sep 19
57 °FPassing clouds.8 mph94%30.05 "Hg15 mi
10:00 pm59 °FPassing clouds.7 mph94%30.05 "Hg15 mi
9:00 pm59 °FPassing clouds.7 mph94%30.04 "Hg15 mi
8:00 pm61 °FPartly cloudy.6 mph88%30.03 "Hg15 mi
7:00 pm63 °FBroken clouds.6 mph83%30.02 "Hg20 mi
6:00 pm64 °FPartly sunny.8 mph83%30.02 "Hg20 mi
5:00 pm63 °FLight rain. Partly sunny.9 mph88%30.02 "Hg20 mi
Weather by CustomWeather, © 2020

See weather overview